| time (UTC) | temp F | wind direction | speed MPH | gust MPH | rain 1hr in | rain 24hr in | rain mn in | humidity % | barometer mb |
| 20260905161020 | 76 | 190 | 1.0 | 3.0 | 0.00 | 0.09 | 0.08 | 76 | 1015.9 |
| 20260905160519 | 76 | 190 | 0.0 | 0.0 | 0.00 | 0.09 | 0.08 | 77 | 1015.9 |
| 20260905160137 | 75 | 0 | 0.0 | 1.0 | 0.00 | 0.08 | 0.07 | 78 | 1014.4 |
| 20260905160020 | 75 | 190 | 0.0 | 0.0 | 0.00 | 0.09 | 0.08 | 79 | 1016.0 |
| 20260905155519 | 74 | 190 | 0.0 | 1.0 | 0.00 | 0.09 | 0.08 | 81 | 1016.1 |
| 20260905155016 | 74 | 190 | 0.0 | 1.0 | 0.00 | 0.09 | 0.08 | 82 | 1016.1 |
| 20260905154603 | 74 | 0 | 0.0 | 0.0 | 0.00 | 0.08 | 0.07 | 82 | 1014.5 |
| 20260905154516 | 74 | 190 | 0.0 | 0.0 | 0.00 | 0.09 | 0.08 | 83 | 1016.0 |
| 20260905154016 | 74 | 190 | 0.0 | 0.0 | 0.00 | 0.09 | 0.08 | 82 | 1016.0 |
| 20260905153516 | 74 | 190 | 0.0 | 2.0 | 0.00 | 0.09 | 0.08 | 83 | 1015.9 |
| 20260905153106 | 74 | 0 | 0.0 | 1.0 | 0.00 | 0.08 | 0.07 | 82 | 1014.3 |
| 20260905153017 | 74 | 190 | 0.0 | 1.0 | 0.00 | 0.09 | 0.08 | 82 | 1015.9 |
| 20260905152516 | 74 | 190 | 0.0 | 0.0 | 0.00 | 0.09 | 0.08 | 81 | 1015.8 |
| 20260905152018 | 74 | 190 | 0.0 | 2.0 | 0.00 | 0.09 | 0.08 | 82 | 1015.9 |
| 20260905151610 | 74 | 0 | 1.0 | 2.0 | 0.00 | 0.08 | 0.07 | 81 | 1014.2 |
| 20260905151516 | 74 | 190 | 0.0 | 2.0 | 0.00 | 0.09 | 0.08 | 82 | 1015.8 |
| 20260905151018 | 74 | 190 | 0.0 | 2.0 | 0.00 | 0.09 | 0.08 | 82 | 1015.8 |
| 20260905150515 | 74 | 190 | 0.0 | 0.0 | 0.00 | 0.09 | 0.08 | 83 | 1015.9 |
| 20260905150105 | 73 | 0 | 0.0 | 1.0 | 0.00 | 0.08 | 0.07 | 83 | 1014.3 |
| 20260905150012 | 73 | 190 | 0.0 | 0.0 | 0.00 | 0.09 | 0.08 | 83 | 1016.0 |
| 20260905145510 | 73 | 190 | 0.0 | 1.0 | 0.00 | 0.09 | 0.08 | 85 | 1016.0 |
| 20260905145009 | 72 | 190 | 0.0 | 1.0 | 0.00 | 0.09 | 0.08 | 85 | 1016.0 |
| 20260905144605 | 72 | 0 | 0.0 | 1.0 | 0.00 | 0.08 | 0.07 | 85 | 1014.1 |
| 20260905144516 | 72 | 190 | 0.0 | 1.0 | 0.00 | 0.09 | 0.08 | 86 | 1015.9 |
| 20260905144010 | 72 | 190 | 0.0 | 1.0 | 0.00 | 0.09 | 0.08 | 87 | 1016.0 |
| 20260905143510 | 72 | 190 | 0.0 | 1.0 | 0.00 | 0.09 | 0.08 | 86 | 1016.0 |
| 20260905143113 | 72 | 0 | 0.0 | 0.0 | 0.00 | 0.08 | 0.07 | 85 | 1014.1 |
| 20260905143007 | 72 | 190 | 0.0 | 0.0 | 0.00 | 0.09 | 0.08 | 87 | 1015.9 |
| 20260905142507 | 71 | 190 | 0.0 | 0.0 | 0.00 | 0.09 | 0.08 | 87 | 1016.0 |
| 20260905142004 | 71 | 190 | 0.0 | 0.0 | 0.00 | 0.09 | 0.08 | 88 | 1015.9 |
| 20260905141610 | 71 | 0 | 0.0 | 0.0 | 0.00 | 0.08 | 0.07 | 87 | 1014.0 |
| 20260905141505 | 71 | 190 | 0.0 | 0.0 | 0.00 | 0.09 | 0.08 | 88 | 1016.0 |
| 20260905141006 | 70 | 190 | 0.0 | 0.0 | 0.00 | 0.09 | 0.08 | 88 | 1016.0 |
| 20260905140504 | 70 | 190 | 0.0 | 0.0 | 0.00 | 0.09 | 0.08 | 89 | 1016.0 |
| 20260905140106 | 70 | 0 | 0.0 | 0.0 | 0.00 | 0.08 | 0.07 | 89 | 1014.0 |
| 20260905140004 | 70 | 190 | 0.0 | 0.0 | 0.00 | 0.09 | 0.08 | 89 | 1016.0 |
| 20260905135502 | 69 | 190 | 0.0 | 0.0 | 0.00 | 0.09 | 0.08 | 90 | 1015.9 |
| 20260905135002 | 69 | 190 | 0.0 | 0.0 | 0.00 | 0.09 | 0.08 | 91 | 1015.8 |
| 20260905134610 | 69 | 0 | 0.0 | 0.0 | 0.00 | 0.08 | 0.07 | 90 | 1013.9 |
| 20260905134502 | 69 | 190 | 0.0 | 0.0 | 0.00 | 0.09 | 0.08 | 91 | 1015.8 |
| 20260905134003 | 69 | 190 | 0.0 | 0.0 | 0.00 | 0.09 | 0.08 | 92 | 1015.8 |
| 20260905133502 | 68 | 190 | 0.0 | 1.0 | 0.00 | 0.09 | 0.08 | 92 | 1015.8 |
| 20260905133107 | 68 | 0 | 0.0 | 1.0 | 0.00 | 0.08 | 0.07 | 92 | 1014.0 |
| 20260905133001 | 68 | 190 | 0.0 | 1.0 | 0.00 | 0.09 | 0.08 | 92 | 1015.8 |
| 20260905132502 | 68 | 190 | 0.0 | 0.0 | 0.00 | 0.09 | 0.08 | 93 | 1015.8 |
| 20260905132104 | 68 | 190 | 0.0 | 0.0 | 0.00 | 0.09 | 0.08 | 94 | 1015.7 |
| 20260905131616 | 68 | 190 | 0.0 | 0.0 | 0.00 | 0.09 | 0.08 | 94 | 1015.6 |
| 20260905131607 | 68 | 0 | 0.0 | 0.0 | 0.00 | 0.08 | 0.07 | 94 | 1013.8 |
| 20260905131059 | 68 | 190 | 0.0 | 0.0 | 0.00 | 0.09 | 0.08 | 94 | 1015.6 |
| 20260905130601 | 68 | 190 | 0.0 | 0.0 | 0.00 | 0.09 | 0.08 | 94 | 1015.7 |
| 20260905130105 | 68 | 0 | 0.0 | 0.0 | 0.00 | 0.08 | 0.07 | 94 | 1013.8 |
| 20260905130058 | 68 | 190 | 0.0 | 0.0 | 0.00 | 0.09 | 0.08 | 94 | 1015.6 |
| 20260905125557 | 68 | 190 | 0.0 | 0.0 | 0.00 | 0.09 | 0.08 | 95 | 1015.5 |
| 20260905125058 | 67 | 190 | 0.0 | 0.0 | 0.00 | 0.09 | 0.08 | 94 | 1015.6 |
| 20260905124607 | 68 | 0 | 0.0 | 2.0 | 0.00 | 0.08 | 0.07 | 94 | 1013.7 |
| 20260905124557 | 67 | 190 | 0.0 | 2.0 | 0.00 | 0.09 | 0.08 | 94 | 1015.5 |
| 20260905124055 | 67 | 190 | 0.0 | 2.0 | 0.00 | 0.09 | 0.08 | 94 | 1015.4 |
| 20260905123555 | 67 | 190 | 0.0 | 0.0 | 0.00 | 0.09 | 0.08 | 94 | 1015.2 |
| 20260905123109 | 67 | 0 | 0.0 | 0.0 | 0.00 | 0.08 | 0.07 | 93 | 1013.5 |
| 20260905123056 | 67 | 190 | 0.0 | 0.0 | 0.00 | 0.09 | 0.08 | 94 | 1015.1 |
| 20260905122554 | 67 | 190 | 0.0 | 0.0 | 0.00 | 0.09 | 0.08 | 94 | 1015.1 |
| 20260905122053 | 67 | 190 | 0.0 | 0.0 | 0.00 | 0.09 | 0.08 | 94 | 1015.1 |
| 20260905121612 | 68 | 0 | 0.0 | 0.0 | 0.00 | 0.08 | 0.07 | 94 | 1013.3 |
| 20260905121553 | 68 | 190 | 0.0 | 0.0 | 0.00 | 0.09 | 0.08 | 94 | 1015.0 |
| 20260905121051 | 68 | 190 | 0.0 | 0.0 | 0.00 | 0.09 | 0.08 | 94 | 1014.9 |
| 20260905120554 | 68 | 190 | 0.0 | 0.0 | 0.00 | 0.09 | 0.08 | 94 | 1014.8 |
| 20260905120121 | 68 | 0 | 0.0 | 0.0 | 0.00 | 0.08 | 0.07 | 94 | 1013.0 |
| 20260905120050 | 68 | 190 | 0.0 | 0.0 | 0.00 | 0.09 | 0.08 | 94 | 1014.6 |
| 20260905115550 | 68 | 190 | 0.0 | 0.0 | 0.00 | 0.09 | 0.08 | 94 | 1014.5 |
| 20260905115050 | 68 | 190 | 0.0 | 0.0 | 0.00 | 0.09 | 0.08 | 94 | 1014.5 |
| 20260905114611 | 68 | 0 | 0.0 | 1.0 | 0.00 | 0.08 | 0.07 | 94 | 1012.8 |
| 20260905114552 | 68 | 190 | 0.0 | 0.0 | 0.00 | 0.09 | 0.08 | 94 | 1014.4 |
| 20260905114049 | 68 | 190 | 0.0 | 1.0 | 0.00 | 0.09 | 0.08 | 94 | 1014.4 |
| 20260905113549 | 68 | 190 | 0.0 | 1.0 | 0.00 | 0.09 | 0.08 | 94 | 1014.1 |
| 20260905113110 | 68 | 0 | 0.0 | 1.0 | 0.00 | 0.08 | 0.07 | 94 | 1012.5 |
| 20260905113049 | 68 | 190 | 0.0 | 1.0 | 0.00 | 0.09 | 0.08 | 94 | 1014.2 |
| 20260905112549 | 68 | 190 | 0.0 | 1.0 | 0.00 | 0.09 | 0.08 | 94 | 1014.3 |
| 20260905112047 | 68 | 190 | 0.0 | 0.0 | 0.00 | 0.09 | 0.08 | 94 | 1014.2 |
| 20260905111613 | 69 | 0 | 0.0 | 0.0 | 0.00 | 0.08 | 0.07 | 93 | 1012.5 |
| 20260905111547 | 68 | 190 | 0.0 | 0.0 | 0.00 | 0.09 | 0.08 | 94 | 1014.1 |
| 20260905111048 | 69 | 190 | 0.0 | 0.0 | 0.00 | 0.09 | 0.08 | 94 | 1014.1 |
| 20260905110545 | 69 | 190 | 0.0 | 0.0 | 0.00 | 0.09 | 0.08 | 93 | 1014.0 |
| 20260905110109 | 69 | 0 | 0.0 | 0.0 | 0.00 | 0.08 | 0.07 | 93 | 1012.3 |
| 20260905110044 | 69 | 190 | 0.0 | 0.0 | 0.00 | 0.09 | 0.08 | 94 | 1014.0 |
| 20260905105544 | 69 | 190 | 0.0 | 0.0 | 0.00 | 0.09 | 0.08 | 93 | 1013.9 |
| 20260905105044 | 69 | 190 | 0.0 | 0.0 | 0.00 | 0.09 | 0.08 | 94 | 1013.9 |
| 20260905104605 | 69 | 0 | 0.0 | 0.0 | 0.00 | 0.08 | 0.07 | 93 | 1012.2 |
| 20260905104553 | 69 | 190 | 0.0 | 0.0 | 0.00 | 0.09 | 0.08 | 94 | 1013.9 |
| 20260905104044 | 69 | 190 | 0.0 | 0.0 | 0.00 | 0.09 | 0.08 | 93 | 1013.9 |
| 20260905103547 | 69 | 190 | 0.0 | 0.0 | 0.00 | 0.09 | 0.08 | 94 | 1014.0 |
| 20260905103100 | 69 | 0 | 0.0 | 0.0 | 0.00 | 0.08 | 0.07 | 93 | 1012.4 |
| 20260905103048 | 69 | 190 | 0.0 | 0.0 | 0.00 | 0.09 | 0.08 | 93 | 1014.0 |
| 20260905102542 | 69 | 190 | 0.0 | 0.0 | 0.00 | 0.09 | 0.08 | 93 | 1014.1 |
| 20260905102042 | 69 | 190 | 0.0 | 0.0 | 0.00 | 0.09 | 0.08 | 93 | 1014.1 |
| 20260905101601 | 69 | 0 | 0.0 | 0.0 | 0.00 | 0.08 | 0.07 | 93 | 1012.4 |
| 20260905101542 | 69 | 190 | 0.0 | 0.0 | 0.00 | 0.09 | 0.08 | 93 | 1014.1 |
| 20260905101041 | 69 | 190 | 0.0 | 0.0 | 0.01 | 0.09 | 0.08 | 93 | 1014.1 |
| 20260905100543 | 69 | 190 | 0.0 | 0.0 | 0.01 | 0.09 | 0.08 | 94 | 1014.2 |
| 20260905100110 | 69 | 0 | 0.0 | 2.0 | 0.00 | 0.08 | 0.07 | 93 | 1012.7 |
| 20260905100040 | 69 | 190 | 0.0 | 2.0 | 0.01 | 0.09 | 0.08 | 94 | 1014.4 |
| 20260905095539 | 69 | 190 | 0.0 | 2.0 | 0.01 | 0.09 | 0.08 | 93 | 1014.4 |
| 20260905095039 | 69 | 190 | 0.0 | 1.0 | 0.01 | 0.09 | 0.08 | 93 | 1014.3 |
| 20260905094602 | 69 | 0 | 0.0 | 0.0 | 0.00 | 0.08 | 0.07 | 92 | 1012.7 |
| 20260905094539 | 69 | 190 | 0.0 | 0.0 | 0.01 | 0.09 | 0.08 | 92 | 1014.3 |
| 20260905094037 | 69 | 190 | 0.0 | 2.0 | 0.02 | 0.09 | 0.08 | 92 | 1014.3 |
| 20260905093539 | 69 | 190 | 0.0 | 2.0 | 0.02 | 0.09 | 0.08 | 92 | 1014.4 |
| 20260905093102 | 70 | 0 | 1.0 | 2.0 | 0.03 | 0.08 | 0.07 | 91 | 1012.9 |
| 20260905093040 | 70 | 190 | 0.0 | 2.0 | 0.03 | 0.09 | 0.08 | 92 | 1014.5 |
| 20260905092538 | 70 | 190 | 0.0 | 0.0 | 0.04 | 0.09 | 0.08 | 92 | 1014.6 |
| 20260905092035 | 70 | 190 | 0.0 | 0.0 | 0.05 | 0.09 | 0.08 | 92 | 1014.6 |
| 20260905091622 | 70 | 0 | 0.0 | 0.0 | 0.04 | 0.08 | 0.07 | 91 | 1013.0 |
| 20260905091537 | 70 | 190 | 0.0 | 0.0 | 0.06 | 0.09 | 0.08 | 92 | 1014.6 |
| 20260905091035 | 70 | 190 | 0.0 | 0.0 | 0.05 | 0.08 | 0.07 | 92 | 1014.6 |
| 20260905090533 | 70 | 190 | 0.0 | 0.0 | 0.05 | 0.08 | 0.07 | 92 | 1014.7 |
| 20260905090121 | 70 | 0 | 0.0 | 0.0 | 0.05 | 0.07 | 0.07 | 92 | 1013.2 |
| 20260905090035 | 70 | 190 | 0.0 | 0.0 | 0.06 | 0.08 | 0.07 | 92 | 1014.8 |
| 20260905085532 | 70 | 190 | 0.0 | 0.0 | 0.06 | 0.08 | 0.07 | 92 | 1014.8 |
| 20260905085032 | 70 | 190 | 0.0 | 0.0 | 0.06 | 0.08 | 0.07 | 92 | 1014.9 |
| 20260905084610 | 70 | 0 | 0.0 | 0.0 | 0.05 | 0.07 | 0.07 | 91 | 1013.3 |
| 20260905084530 | 70 | 190 | 0.0 | 0.0 | 0.06 | 0.08 | 0.07 | 91 | 1014.9 |
| 20260905084035 | 70 | 190 | 0.0 | 0.0 | 0.05 | 0.07 | 0.06 | 91 | 1014.8 |
| 20260905083530 | 70 | 190 | 0.0 | 0.0 | 0.03 | 0.06 | 0.05 | 91 | 1014.9 |
| 20260905083100 | 70 | 0 | 0.0 | 0.0 | 0.03 | 0.05 | 0.04 | 90 | 1013.3 |
| 20260905083034 | 70 | 190 | 0.0 | 0.0 | 0.03 | 0.06 | 0.05 | 90 | 1015.0 |
| 20260905082529 | 70 | 190 | 0.0 | 0.0 | 0.02 | 0.05 | 0.04 | 91 | 1015.1 |
| 20260905082032 | 70 | 190 | 0.0 | 0.0 | 0.02 | 0.04 | 0.03 | 90 | 1015.1 |
| 20260905081610 | 70 | 0 | 0.0 | 0.0 | 0.01 | 0.03 | 0.03 | 91 | 1013.6 |
| 20260905081529 | 70 | 190 | 0.0 | 0.0 | 0.01 | 0.03 | 0.02 | 91 | 1015.1 |
| 20260905081028 | 70 | 190 | 0.0 | 0.0 | 0.01 | 0.03 | 0.02 | 91 | 1015.1 |
| 20260905080529 | 70 | 190 | 0.0 | 0.0 | 0.01 | 0.03 | 0.02 | 90 | 1015.1 |
| 20260905080105 | 71 | 0 | 0.0 | 0.0 | 0.00 | 0.02 | 0.01 | 89 | 1013.5 |
| 20260905080035 | 70 | 190 | 0.0 | 0.0 | 0.00 | 0.02 | 0.02 | 90 | 1015.1 |
| 20260905075526 | 71 | 190 | 0.0 | 0.0 | 0.00 | 0.02 | 0.02 | 89 | 1015.1 |
| 20260905075026 | 71 | 190 | 0.0 | 0.0 | 0.00 | 0.02 | 0.02 | 90 | 1014.9 |
| 20260905074601 | 71 | 0 | 0.0 | 0.0 | 0.00 | 0.02 | 0.01 | 90 | 1013.5 |
| 20260905074527 | 70 | 190 | 0.0 | 0.0 | 0.00 | 0.02 | 0.02 | 90 | 1015.1 |
| 20260905074027 | 70 | 190 | 0.0 | 0.0 | 0.01 | 0.02 | 0.02 | 90 | 1015.1 |
| 20260905073627 | 70 | 190 | 0.0 | 0.0 | 0.02 | 0.02 | 0.02 | 90 | 1015.1 |
| 20260905073107 | 70 | 0 | 0.0 | 0.0 | 0.01 | 0.02 | 0.01 | 90 | 1013.7 |
| 20260905073027 | 70 | 190 | 0.0 | 0.0 | 0.02 | 0.02 | 0.02 | 90 | 1015.2 |
| 20260905072527 | 70 | 190 | 0.0 | 0.0 | 0.02 | 0.02 | 0.02 | 90 | 1015.2 |
| 20260905072025 | 70 | 190 | 0.0 | 0.0 | 0.02 | 0.02 | 0.02 | 90 | 1015.1 |
| 20260905071602 | 70 | 0 | 0.0 | 1.0 | 0.01 | 0.02 | 0.01 | 90 | 1013.6 |
| 20260905071527 | 70 | 190 | 0.0 | 0.0 | 0.02 | 0.02 | 0.02 | 91 | 1015.1 |
| 20260905071024 | 70 | 190 | 0.0 | 1.0 | 0.02 | 0.02 | 0.02 | 91 | 1015.0 |
| 20260905070524 | 70 | 190 | 0.0 | 2.0 | 0.02 | 0.02 | 0.02 | 90 | 1015.0 |
| 20260905070114 | 70 | 0 | 0.0 | 2.0 | 0.01 | 0.02 | 0.01 | 89 | 1013.3 |
| 20260905070023 | 70 | 190 | 0.0 | 2.0 | 0.02 | 0.02 | 0.02 | 90 | 1015.0 |
| 20260905065521 | 70 | 190 | 0.0 | 1.0 | 0.02 | 0.02 | 0.02 | 89 | 1015.0 |
| 20260905065029 | 70 | 190 | 0.0 | 2.0 | 0.02 | 0.02 | 0.02 | 89 | 1015.0 |
| 20260905064601 | 70 | 0 | 0.0 | 4.0 | 0.01 | 0.02 | 0.01 | 89 | 1013.4 |
| 20260905064521 | 70 | 190 | 0.0 | 4.0 | 0.02 | 0.02 | 0.02 | 89 | 1015.0 |
| 20260905064024 | 70 | 190 | 0.0 | 6.0 | 0.00 | 0.01 | 0.00 | 89 | 1015.1 |
| 20260905063522 | 70 | 190 | 0.0 | 7.0 | 0.00 | 0.01 | 0.00 | 89 | 1015.2 |
| 20260905063104 | 70 | 190 | 2.0 | 12.0 | 0.00 | 0.00 | 0.00 | 89 | 1013.7 |
| 20260905063020 | 70 | 190 | 2.0 | 12.0 | 0.00 | 0.01 | 0.00 | 89 | 1015.3 |
| 20260905062518 | 70 | 190 | 4.0 | 12.0 | 0.00 | 0.01 | 0.00 | 89 | 1015.3 |
| 20260905062017 | 70 | 190 | 1.0 | 7.0 | 0.00 | 0.01 | 0.00 | 88 | 1015.2 |
| 20260905061623 | 70 | 190 | 2.0 | 8.0 | 0.00 | 0.00 | 0.00 | 87 | 1013.7 |
| 20260905061517 | 70 | 190 | 2.0 | 7.0 | 0.00 | 0.01 | 0.00 | 87 | 1015.3 |
| 20260905061017 | 70 | 190 | 1.0 | 8.0 | 0.00 | 0.01 | 0.00 | 87 | 1015.2 |
| 20260905060515 | 71 | 190 | 3.0 | 8.0 | 0.01 | 0.01 | 0.00 | 87 | 1015.2 |
| 20260905060117 | 71 | 190 | 0.0 | 6.0 | 0.00 | 0.00 | 0.00 | 87 | 1013.6 |
| 20260905060014 | 71 | 190 | 0.0 | 6.0 | 0.01 | 0.01 | 0.00 | 87 | 1015.1 |
| 20260905055514 | 71 | 190 | 0.0 | 6.0 | 0.01 | 0.01 | 0.01 | 87 | 1015.1 |
| 20260905055015 | 71 | 190 | 1.0 | 5.0 | 0.01 | 0.01 | 0.01 | 86 | 1015.1 |
| 20260905054608 | 72 | 0 | 0.0 | 5.0 | 0.00 | 0.00 | 0.00 | 85 | 1013.4 |
| 20260905054515 | 71 | 190 | 0.0 | 5.0 | 0.01 | 0.01 | 0.01 | 85 | 1015.0 |
| 20260905054016 | 72 | 190 | 0.0 | 5.0 | 0.01 | 0.01 | 0.01 | 85 | 1014.9 |
| 20260905053513 | 72 | 190 | 0.0 | 7.0 | 0.01 | 0.01 | 0.01 | 84 | 1014.8 |
| 20260905053102 | 72 | 0 | 3.0 | 11.0 | 0.00 | 0.00 | 0.00 | 82 | 1013.2 |
| 20260905053014 | 72 | 190 | 3.0 | 11.0 | 0.01 | 0.01 | 0.01 | 82 | 1014.8 |
| 20260905052513 | 73 | 190 | 3.0 | 11.0 | 0.01 | 0.01 | 0.01 | 80 | 1014.8 |
| 20260905052014 | 75 | 190 | 4.0 | 10.0 | 0.01 | 0.01 | 0.01 | 77 | 1014.7 |
| 20260905051621 | 76 | 190 | 3.0 | 5.0 | 0.00 | 0.00 | 0.00 | 76 | 1013.2 |
| 20260905051523 | 76 | 190 | 2.0 | 5.0 | 0.01 | 0.01 | 0.01 | 76 | 1014.7 |
| 20260905051012 | 77 | 190 | 0.0 | 2.0 | 0.01 | 0.01 | 0.01 | 72 | 1014.6 |
| 20260905050512 | 78 | 190 | 0.0 | 4.0 | 0.00 | 0.00 | 0.00 | 68 | 1014.5 |
| 20260905050105 | 78 | 190 | 1.0 | 7.0 | 0.00 | 0.00 | 0.00 | 66 | 1012.8 |
| 20260905050013 | 78 | 190 | 0.0 | 7.0 | 0.00 | 0.00 | 0.00 | 66 | 1014.4 |
| 20260905045512 | 79 | 190 | 3.0 | 7.0 | 0.00 | 0.00 | 0.00 | 65 | 1014.5 |
| 20260905045012 | 79 | 190 | 1.0 | 3.0 | 0.00 | 0.00 | 0.00 | 62 | 1014.4 |
| 20260905044600 | 79 | 0 | 0.0 | 4.0 | 0.00 | 0.00 | 0.00 | 61 | 1012.8 |
| 20260905044513 | 79 | 190 | 0.0 | 2.0 | 0.00 | 0.00 | 0.00 | 62 | 1014.2 |
| 20260905044011 | 79 | 190 | 0.0 | 4.0 | 0.00 | 0.00 | 0.00 | 62 | 1014.1 |
| 20260905043511 | 79 | 190 | 0.0 | 2.0 | 0.00 | 0.00 | 0.00 | 62 | 1014.0 |
| 20260905043105 | 79 | 0 | 0.0 | 2.0 | 0.00 | 0.00 | 0.00 | 61 | 1012.5 |
| 20260905043011 | 79 | 190 | 0.0 | 2.0 | 0.00 | 0.00 | 0.00 | 62 | 1014.0 |
| 20260905042511 | 79 | 190 | 0.0 | 2.0 | 0.00 | 0.00 | 0.00 | 62 | 1014.0 |
| 20260905042011 | 79 | 190 | 0.0 | 3.0 | 0.00 | 0.00 | 0.00 | 62 | 1014.0 |
| 20260905041608 | 79 | 0 | 0.0 | 2.0 | 0.00 | 0.00 | 0.00 | 61 | 1012.2 |
| 20260905041511 | 79 | 190 | 0.0 | 2.0 | 0.00 | 0.00 | 0.00 | 62 | 1013.9 |
| 20260905041012 | 79 | 190 | 0.0 | 3.0 | 0.00 | 0.00 | 0.00 | 63 | 1013.9 |
| 20260905040612 | 79 | 190 | 0.0 | 3.0 | 0.00 | 0.00 | 0.00 | 63 | 1013.7 |
| 20260905040109 | 79 | 190 | 0.0 | 4.0 | 0.00 | 0.00 | 0.00 | 63 | 1012.2 |
| 20260905040010 | 79 | 190 | 0.0 | 3.0 | 0.00 | 0.00 | 0.00 | 63 | 1013.8 |
| 20260905035509 | 79 | 190 | 0.0 | 4.0 | 0.00 | 0.00 | 0.00 | 64 | 1013.9 |
| 20260905035009 | 80 | 190 | 0.0 | 3.0 | 0.00 | 0.00 | 0.00 | 65 | 1013.9 |
| 20260905034613 | 80 | 190 | 0.0 | 5.0 | 0.00 | 0.00 | 0.00 | 65 | 1012.4 |
| 20260905034511 | 79 | 190 | 0.0 | 5.0 | 0.00 | 0.00 | 0.00 | 65 | 1013.8 |
| 20260905034009 | 79 | 190 | 1.0 | 5.0 | 0.00 | 0.00 | 0.00 | 66 | 1013.8 |
| 20260905033509 | 79 | 190 | 1.0 | 4.0 | 0.00 | 0.00 | 0.00 | 68 | 1013.7 |
| 20260905033113 | 79 | 0 | 0.0 | 4.0 | 0.00 | 0.00 | 0.00 | 68 | 1012.3 |
| 20260905033010 | 79 | 190 | 0.0 | 2.0 | 0.00 | 0.00 | 0.00 | 68 | 1013.7 |
| 20260905032508 | 79 | 190 | 0.0 | 4.0 | 0.00 | 0.00 | 0.00 | 67 | 1013.6 |
| 20260905032009 | 80 | 190 | 0.0 | 3.0 | 0.00 | 0.00 | 0.00 | 67 | 1013.6 |
| 20260905031621 | 80 | 0 | 0.0 | 4.0 | 0.00 | 0.00 | 0.00 | 65 | 1012.1 |
| 20260905031509 | 80 | 190 | 0.0 | 4.0 | 0.00 | 0.00 | 0.00 | 66 | 1013.6 |
| 20260905031008 | 81 | 190 | 1.0 | 4.0 | 0.00 | 0.00 | 0.00 | 65 | 1013.4 |
| 20260905030508 | 81 | 190 | 0.0 | 0.0 | 0.00 | 0.00 | 0.00 | 64 | 1013.3 |
| 20260905030106 | 81 | 0 | 0.0 | 0.0 | 0.00 | 0.00 | 0.00 | 64 | 1011.9 |
| 20260905030008 | 81 | 190 | 0.0 | 0.0 | 0.00 | 0.00 | 0.00 | 64 | 1013.3 |
| 20260905025507 | 81 | 190 | 0.0 | 0.0 | 0.00 | 0.00 | 0.00 | 63 | 1013.1 |
| 20260905025007 | 81 | 190 | 0.0 | 0.0 | 0.00 | 0.00 | 0.00 | 63 | 1012.9 |
| 20260905024611 | 81 | 0 | 0.0 | 0.0 | 0.00 | 0.00 | 0.00 | 63 | 1011.5 |
| 20260905024509 | 81 | 190 | 0.0 | 0.0 | 0.00 | 0.00 | 0.00 | 63 | 1012.9 |
| 20260905024007 | 81 | 190 | 0.0 | 0.0 | 0.00 | 0.00 | 0.00 | 62 | 1012.8 |
| 20260905023507 | 81 | 190 | 0.0 | 0.0 | 0.00 | 0.00 | 0.00 | 64 | 1012.7 |
| 20260905023105 | 81 | 0 | 0.0 | 0.0 | 0.00 | 0.00 | 0.00 | 64 | 1011.2 |
| 20260905023007 | 81 | 190 | 0.0 | 0.0 | 0.00 | 0.00 | 0.00 | 64 | 1012.5 |
| 20260905022511 | 81 | 190 | 0.0 | 0.0 | 0.00 | 0.00 | 0.00 | 64 | 1012.4 |
| 20260905022010 | 81 | 190 | 0.0 | 4.0 | 0.00 | 0.00 | 0.00 | 64 | 1012.3 |
| 20260905021600 | 81 | 0 | 0.0 | 4.0 | 0.00 | 0.00 | 0.00 | 63 | 1010.7 |
| 20260905021506 | 81 | 190 | 0.0 | 4.0 | 0.00 | 0.00 | 0.00 | 63 | 1012.1 |
| 20260905021006 | 82 | 190 | 0.0 | 4.0 | 0.00 | 0.00 | 0.00 | 63 | 1012.0 |
| 20260905020506 | 82 | 190 | 1.0 | 5.0 | 0.00 | 0.00 | 0.00 | 62 | 1011.8 |
| 20260905020105 | 82 | 190 | 1.0 | 5.0 | 0.00 | 0.00 | 0.00 | 62 | 1010.3 |
| 20260905020009 | 82 | 190 | 0.0 | 5.0 | 0.00 | 0.00 | 0.00 | 62 | 1011.6 |
| 20260905015507 | 82 | 190 | 2.0 | 5.0 | 0.00 | 0.00 | 0.00 | 62 | 1011.5 |
| 20260905015007 | 82 | 190 | 0.0 | 4.0 | 0.00 | 0.00 | 0.00 | 63 | 1011.3 |
| 20260905014604 | 82 | 190 | 2.0 | 5.0 | 0.00 | 0.00 | 0.00 | 63 | 1010.0 |
| 20260905014507 | 82 | 190 | 1.0 | 5.0 | 0.00 | 0.00 | 0.00 | 63 | 1011.3 |
| 20260905014006 | 82 | 190 | 1.0 | 5.0 | 0.00 | 0.00 | 0.00 | 63 | 1011.3 |
| 20260905013505 | 82 | 190 | 1.0 | 5.0 | 0.00 | 0.00 | 0.00 | 62 | 1011.3 |
| 20260905013109 | 83 | 190 | 2.0 | 6.0 | 0.00 | 0.00 | 0.00 | 61 | 1009.9 |
| 20260905013010 | 83 | 190 | 2.0 | 5.0 | 0.00 | 0.00 | 0.00 | 61 | 1011.2 |
| 20260905012505 | 83 | 190 | 2.0 | 6.0 | 0.00 | 0.00 | 0.00 | 61 | 1011.0 |
| 20260905012005 | 83 | 190 | 2.0 | 6.0 | 0.00 | 0.00 | 0.00 | 60 | 1010.9 |
| 20260905011606 | 83 | 190 | 2.0 | 4.0 | 0.00 | 0.00 | 0.00 | 59 | 1009.5 |
| 20260905011513 | 83 | 190 | 2.0 | 4.0 | 0.00 | 0.00 | 0.00 | 59 | 1010.9 |
| 20260905011005 | 84 | 190 | 0.0 | 4.0 | 0.00 | 0.00 | 0.00 | 58 | 1010.7 |
| 20260905010505 | 84 | 190 | 0.0 | 5.0 | 0.00 | 0.00 | 0.00 | 57 | 1010.5 |
| 20260905010108 | 85 | 0 | 0.0 | 9.0 | 0.00 | 0.00 | 0.00 | 55 | 1009.1 |
| 20260905010003 | 84 | 190 | 0.0 | 9.0 | 0.00 | 0.00 | 0.00 | 55 | 1010.4 |
| 20260905005503 | 85 | 190 | 2.0 | 9.0 | 0.00 | 0.00 | 0.00 | 54 | 1010.3 |
| 20260905005004 | 85 | 190 | 0.0 | 4.0 | 0.00 | 0.00 | 0.00 | 54 | 1010.1 |
| 20260905004602 | 86 | 190 | 0.0 | 2.0 | 0.00 | 0.00 | 0.00 | 53 | 1008.7 |
| 20260905004503 | 86 | 190 | 0.0 | 2.0 | 0.00 | 0.00 | 0.00 | 53 | 1009.9 |
| 20260905004003 | 86 | 190 | 0.0 | 0.0 | 0.00 | 0.00 | 0.00 | 53 | 1009.9 |
| 20260905003504 | 86 | 190 | 0.0 | 2.0 | 0.00 | 0.00 | 0.00 | 52 | 1009.7 |
| 20260905003111 | 87 | 190 | 0.0 | 6.0 | 0.00 | 0.00 | 0.00 | 50 | 1008.4 |
| 20260905003003 | 87 | 190 | 0.0 | 4.0 | 0.00 | 0.00 | 0.00 | 51 | 1009.7 |
| 20260905002502 | 87 | 190 | 0.0 | 7.0 | 0.00 | 0.00 | 0.00 | 51 | 1009.6 |
| 20260905002002 | 87 | 190 | 2.0 | 7.0 | 0.00 | 0.00 | 0.00 | 51 | 1009.6 |
| 20260905001608 | 87 | 190 | 2.0 | 9.0 | 0.00 | 0.00 | 0.00 | 52 | 1008.3 |
| 20260905001504 | 87 | 190 | 1.0 | 9.0 | 0.00 | 0.00 | 0.00 | 52 | 1009.6 |
| 20260905001003 | 87 | 190 | 2.0 | 10.0 | 0.00 | 0.00 | 0.00 | 52 | 1009.5 |
| 20260905000502 | 88 | 190 | 5.0 | 10.0 | 0.00 | 0.00 | 0.00 | 50 | 1009.5 |
| 20260905000113 | 88 | 190 | 2.0 | 7.0 | 0.00 | 0.00 | 0.00 | 51 | 1008.0 |
| 20260905000002 | 88 | 190 | 2.0 | 5.0 | 0.00 | 0.00 | 0.00 | 51 | 1009.3 |
| 20260904235503 | 88 | 190 | 2.0 | 8.0 | 0.00 | 0.00 | 0.00 | 51 | 1009.2 |
| 20260904235002 | 89 | 190 | 3.0 | 9.0 | 0.00 | 0.00 | 0.00 | 51 | 1009.0 |
| 20260904234602 | 89 | 190 | 3.0 | 11.0 | 0.00 | 0.00 | 0.00 | 50 | 1007.9 |
| 20260904234502 | 89 | 190 | 3.0 | 11.0 | 0.00 | 0.00 | 0.00 | 50 | 1009.0 |
| 20260904234001 | 90 | 190 | 4.0 | 11.0 | 0.00 | 0.00 | 0.00 | 49 | 1009.0 |
| 20260904233502 | 90 | 190 | 1.0 | 8.0 | 0.00 | 0.00 | 0.00 | 47 | 1009.1 |
| 20260904233122 | 91 | 0 | 3.0 | 8.0 | 0.00 | 0.00 | 0.00 | 45 | 1007.8 |
| 20260904233001 | 91 | 190 | 3.0 | 8.0 | 0.00 | 0.00 | 0.00 | 45 | 1009.1 |
| 20260904232501 | 92 | 190 | 2.0 | 6.0 | 0.00 | 0.00 | 0.00 | 44 | 1008.9 |
| 20260904232100 | 92 | 190 | 2.0 | 7.0 | 0.00 | 0.00 | 0.00 | 44 | 1008.8 |
| 20260904231609 | 92 | 190 | 3.0 | 7.0 | 0.00 | 0.00 | 0.00 | 44 | 1007.5 |
| 20260904231600 | 92 | 190 | 3.0 | 7.0 | 0.00 | 0.00 | 0.00 | 44 | 1008.8 |
| 20260904231100 | 92 | 190 | 2.0 | 7.0 | 0.00 | 0.00 | 0.00 | 46 | 1008.7 |
| 20260904230600 | 92 | 190 | 3.0 | 7.0 | 0.00 | 0.00 | 0.00 | 45 | 1008.7 |
| 20260904230159 | 92 | 190 | 2.0 | 7.0 | 0.00 | 0.00 | 0.00 | 45 | 1008.6 |
| 20260904230119 | 92 | 190 | 2.0 | 7.0 | 0.00 | 0.00 | 0.00 | 43 | 1007.4 |
| 20260904225557 | 91 | 190 | 2.0 | 7.0 | 0.00 | 0.00 | 0.00 | 42 | 1008.6 |
| 20260904225057 | 91 | 190 | 3.0 | 9.0 | 0.00 | 0.00 | 0.00 | 44 | 1008.6 |
| 20260904224608 | 91 | 190 | 4.0 | 9.0 | 0.00 | 0.00 | 0.00 | 43 | 1007.2 |
| 20260904224558 | 91 | 190 | 4.0 | 9.0 | 0.00 | 0.00 | 0.00 | 44 | 1008.5 |
| 20260904224058 | 91 | 190 | 2.0 | 7.0 | 0.00 | 0.00 | 0.00 | 43 | 1008.5 |
| 20260904223557 | 91 | 190 | 3.0 | 9.0 | 0.00 | 0.00 | 0.00 | 43 | 1008.4 |
| 20260904223132 | 91 | 190 | 4.0 | 9.0 | 0.00 | 0.00 | 0.00 | 42 | 1007.2 |
| 20260904223104 | 91 | 190 | 3.0 | 9.0 | 0.00 | 0.00 | 0.00 | 42 | 1008.4 |
| 20260904222556 | 92 | 190 | 3.0 | 7.0 | 0.00 | 0.00 | 0.00 | 42 | 1008.5 |
| 20260904222100 | 92 | 190 | 2.0 | 7.0 | 0.00 | 0.00 | 0.00 | 42 | 1008.5 |
| 20260904221606 | 92 | 190 | 3.0 | 11.0 | 0.00 | 0.00 | 0.00 | 41 | 1007.3 |
| 20260904221557 | 92 | 190 | 3.0 | 11.0 | 0.00 | 0.00 | 0.00 | 42 | 1008.6 |
| 20260904221056 | 92 | 190 | 4.0 | 10.0 | 0.00 | 0.00 | 0.00 | 42 | 1008.6 |
| 20260904220554 | 92 | 190 | 1.0 | 4.0 | 0.00 | 0.00 | 0.00 | 41 | 1008.7 |
| 20260904220107 | 92 | 190 | 1.0 | 5.0 | 0.00 | 0.00 | 0.00 | 41 | 1008.7 |
| 20260904220105 | 92 | 190 | 2.0 | 5.0 | 0.00 | 0.00 | 0.00 | 40 | 1007.4 |
| 20260904215552 | 92 | 190 | 2.0 | 5.0 | 0.00 | 0.00 | 0.00 | 39 | 1008.8 |
| 20260904215050 | 92 | 190 | 0.0 | 5.0 | 0.00 | 0.00 | 0.00 | 39 | 1008.9 |
| 20260904214604 | 93 | 190 | 0.0 | 7.0 | 0.00 | 0.00 | 0.00 | 38 | 1007.6 |
| 20260904214549 | 93 | 190 | 0.0 | 5.0 | 0.00 | 0.00 | 0.00 | 38 | 1009.0 |
| 20260904214049 | 93 | 190 | 2.0 | 7.0 | 0.00 | 0.00 | 0.00 | 38 | 1009.1 |
| 20260904213549 | 93 | 190 | 4.0 | 7.0 | 0.00 | 0.00 | 0.00 | 38 | 1009.2 |
| 20260904213104 | 93 | 190 | 2.0 | 7.0 | 0.00 | 0.00 | 0.00 | 38 | 1008.0 |
| 20260904213048 | 93 | 190 | 1.0 | 7.0 | 0.00 | 0.00 | 0.00 | 38 | 1009.2 |
| 20260904212547 | 94 | 190 | 3.0 | 7.0 | 0.00 | 0.00 | 0.00 | 38 | 1009.4 |
| 20260904212045 | 94 | 190 | 0.0 | 4.0 | 0.00 | 0.00 | 0.00 | 38 | 1009.5 |
| 20260904211602 | 94 | 190 | 1.0 | 4.0 | 0.00 | 0.00 | 0.00 | 37 | 1008.3 |
| 20260904211546 | 94 | 190 | 1.0 | 4.0 | 0.00 | 0.00 | 0.00 | 38 | 1009.7 |
| 20260904211044 | 93 | 190 | 1.0 | 5.0 | 0.00 | 0.00 | 0.00 | 39 | 1009.7 |
| 20260904210543 | 93 | 190 | 1.0 | 5.0 | 0.00 | 0.00 | 0.00 | 40 | 1009.8 |
| 20260904210120 | 93 | 190 | 0.0 | 7.0 | 0.00 | 0.00 | 0.00 | 39 | 1008.6 |
| 20260904210047 | 93 | 190 | 1.0 | 6.0 | 0.00 | 0.00 | 0.00 | 40 | 1010.0 |
| 20260904205541 | 93 | 190 | 2.0 | 7.0 | 0.00 | 0.00 | 0.00 | 39 | 1010.1 |
| 20260904205038 | 93 | 190 | 3.0 | 7.0 | 0.00 | 0.00 | 0.00 | 40 | 1010.2 |
| 20260904204602 | 92 | 190 | 2.0 | 7.0 | 0.00 | 0.00 | 0.00 | 42 | 1009.0 |
| 20260904204538 | 92 | 190 | 1.0 | 7.0 | 0.00 | 0.00 | 0.00 | 42 | 1010.2 |
| 20260904204037 | 92 | 190 | 0.0 | 6.0 | 0.00 | 0.00 | 0.00 | 41 | 1010.4 |
| 20260904203536 | 91 | 190 | 1.0 | 7.0 | 0.00 | 0.00 | 0.00 | 41 | 1010.6 |
| 20260904203105 | 91 | 190 | 3.0 | 8.0 | 0.00 | 0.00 | 0.00 | 42 | 1009.5 |
| 20260904203036 | 91 | 190 | 2.0 | 8.0 | 0.00 | 0.00 | 0.00 | 42 | 1010.7 |
| 20260904202535 | 92 | 190 | 4.0 | 8.0 | 0.00 | 0.00 | 0.00 | 43 | 1010.8 |
| 20260904202033 | 91 | 190 | 1.0 | 8.0 | 0.00 | 0.00 | 0.00 | 43 | 1010.8 |
| 20260904201601 | 91 | 190 | 1.0 | 7.0 | 0.00 | 0.00 | 0.00 | 44 | 1009.8 |
| 20260904201531 | 91 | 190 | 1.0 | 7.0 | 0.00 | 0.00 | 0.00 | 44 | 1010.9 |
| 20260904201030 | 91 | 190 | 2.0 | 9.0 | 0.00 | 0.00 | 0.00 | 44 | 1011.0 |
| 20260904200532 | 91 | 190 | 4.0 | 9.0 | 0.00 | 0.00 | 0.00 | 44 | 1011.1 |
| 20260904200105 | 91 | 190 | 1.0 | 7.0 | 0.00 | 0.00 | 0.00 | 44 | 1010.0 |
| 20260904200046 | 91 | 190 | 0.0 | 7.0 | 0.00 | 0.00 | 0.00 | 46 | 1011.2 |
| 20260904195528 | 91 | 190 | 3.0 | 7.0 | 0.00 | 0.00 | 0.00 | 46 | 1011.3 |
| 20260904195027 | 90 | 190 | 1.0 | 4.0 | 0.00 | 0.00 | 0.00 | 46 | 1011.3 |
| 20260904194606 | 90 | 190 | 1.0 | 5.0 | 0.00 | 0.00 | 0.00 | 45 | 1010.2 |
| 20260904194539 | 90 | 190 | 2.0 | 5.0 | 0.00 | 0.00 | 0.00 | 46 | 1011.4 |
| 20260904194025 | 90 | 190 | 3.0 | 6.0 | 0.00 | 0.00 | 0.00 | 46 | 1011.5 |
| 20260904193524 | 90 | 190 | 3.0 | 9.0 | 0.00 | 0.00 | 0.00 | 47 | 1011.7 |
| 20260904193125 | 91 | 190 | 1.0 | 5.0 | 0.00 | 0.00 | 0.00 | 47 | 1010.5 |
| 20260904193024 | 91 | 190 | 0.0 | 5.0 | 0.00 | 0.00 | 0.00 | 48 | 1011.8 |
| 20260904192526 | 90 | 190 | 2.0 | 6.0 | 0.00 | 0.00 | 0.00 | 49 | 1011.9 |
| 20260904192020 | 90 | 190 | 3.0 | 6.0 | 0.00 | 0.00 | 0.00 | 50 | 1012.0 |
| 20260904191602 | 90 | 0 | 0.0 | 9.0 | 0.00 | 0.00 | 0.00 | 50 | 1010.9 |
| 20260904191521 | 89 | 190 | 1.0 | 9.0 | 0.00 | 0.00 | 0.00 | 50 | 1012.2 |
| 20260904191019 | 89 | 190 | 4.0 | 9.0 | 0.00 | 0.00 | 0.00 | 50 | 1012.2 |
| 20260904190520 | 89 | 190 | 3.0 | 9.0 | 0.00 | 0.00 | 0.00 | 51 | 1012.2 |
| 20260904190111 | 89 | 190 | 3.0 | 9.0 | 0.00 | 0.00 | 0.00 | 50 | 1011.1 |
| 20260904190017 | 89 | 190 | 1.0 | 9.0 | 0.00 | 0.00 | 0.00 | 51 | 1012.4 |
| 20260904185516 | 89 | 190 | 1.0 | 4.0 | 0.00 | 0.00 | 0.00 | 52 | 1012.6 |
| 20260904185015 | 88 | 190 | 0.0 | 6.0 | 0.00 | 0.00 | 0.00 | 50 | 1012.6 |
| 20260904184605 | 89 | 190 | 3.0 | 7.0 | 0.00 | 0.00 | 0.00 | 49 | 1011.4 |
| 20260904184514 | 89 | 190 | 2.0 | 7.0 | 0.00 | 0.00 | 0.00 | 50 | 1012.8 |
| 20260904184015 | 89 | 190 | 0.0 | 6.0 | 0.00 | 0.00 | 0.00 | 50 | 1012.8 |
| 20260904183514 | 90 | 190 | 2.0 | 6.0 | 0.00 | 0.00 | 0.00 | 49 | 1012.9 |
| 20260904183103 | 90 | 190 | 0.0 | 4.0 | 0.00 | 0.00 | 0.00 | 49 | 1011.6 |
| 20260904183011 | 90 | 190 | 0.0 | 4.0 | 0.00 | 0.00 | 0.00 | 50 | 1013.1 |
| 20260904182509 | 88 | 190 | 0.0 | 4.0 | 0.00 | 0.00 | 0.00 | 52 | 1013.1 |
| 20260904182010 | 88 | 190 | 0.0 | 6.0 | 0.00 | 0.00 | 0.00 | 51 | 1013.2 |
| 20260904181600 | 88 | 190 | 2.0 | 6.0 | 0.00 | 0.00 | 0.00 | 50 | 1011.8 |
| 20260904181509 | 88 | 190 | 2.0 | 6.0 | 0.00 | 0.00 | 0.00 | 52 | 1013.3 |
| 20260904181009 | 87 | 190 | 2.0 | 5.0 | 0.00 | 0.00 | 0.00 | 53 | 1013.4 |
| 20260904180507 | 87 | 190 | 1.0 | 6.0 | 0.00 | 0.00 | 0.00 | 55 | 1013.4 |
| 20260904180107 | 87 | 0 | 3.0 | 6.0 | 0.00 | 0.00 | 0.00 | 52 | 1011.9 |
| 20260904180006 | 86 | 190 | 3.0 | 6.0 | 0.00 | 0.00 | 0.00 | 55 | 1013.5 |
| 20260904175504 | 87 | 190 | 3.0 | 5.0 | 0.00 | 0.00 | 0.00 | 53 | 1013.5 |
| 20260904175003 | 87 | 190 | 1.0 | 5.0 | 0.00 | 0.00 | 0.00 | 55 | 1013.6 |
| 20260904174615 | 86 | 190 | 0.0 | 4.0 | 0.00 | 0.00 | 0.00 | 57 | 1012.1 |
| 20260904174508 | 86 | 190 | 0.0 | 4.0 | 0.00 | 0.00 | 0.00 | 58 | 1013.7 |
| 20260904174002 | 85 | 190 | 0.0 | 3.0 | 0.00 | 0.00 | 0.00 | 59 | 1013.7 |
| 20260904173601 | 85 | 190 | 1.0 | 5.0 | 0.00 | 0.00 | 0.00 | 59 | 1013.8 |
| 20260904173109 | 85 | 190 | 0.0 | 7.0 | 0.00 | 0.00 | 0.00 | 59 | 1012.4 |
| 20260904173106 | 85 | 190 | 0.0 | 5.0 | 0.00 | 0.00 | 0.00 | 59 | 1013.9 |
| 20260904172559 | 85 | 190 | 0.0 | 7.0 | 0.00 | 0.00 | 0.00 | 61 | 1014.0 |
| 20260904172058 | 84 | 190 | 1.0 | 7.0 | 0.00 | 0.00 | 0.00 | 64 | 1014.1 |
| 20260904171604 | 84 | 190 | 0.0 | 6.0 | 0.00 | 0.00 | 0.00 | 63 | 1014.1 |
| 20260904171057 | 84 | 190 | 3.0 | 6.0 | 0.00 | 0.00 | 0.00 | 63 | 1014.2 |
| 20260904170557 | 84 | 190 | 0.0 | 4.0 | 0.00 | 0.00 | 0.00 | 63 | 1014.2 |
| 20260904170122 | 84 | 190 | 1.0 | 5.0 | 0.00 | 0.00 | 0.00 | 61 | 1012.7 |
| 20260904170058 | 84 | 190 | 1.0 | 5.0 | 0.00 | 0.00 | 0.00 | 62 | 1014.2 |
| 20260904165557 | 84 | 190 | 3.0 | 5.0 | 0.00 | 0.00 | 0.00 | 62 | 1014.2 |
| 20260904165057 | 84 | 190 | 0.0 | 5.0 | 0.00 | 0.00 | 0.00 | 62 | 1014.3 |
| 20260904164608 | 84 | 190 | 1.0 | 5.0 | 0.00 | 0.00 | 0.00 | 61 | 1012.8 |
| 20260904164556 | 84 | 190 | 2.0 | 5.0 | 0.00 | 0.00 | 0.00 | 62 | 1014.3 |
| 20260904164054 | 83 | 190 | 0.0 | 3.0 | 0.00 | 0.00 | 0.00 | 64 | 1014.4 |
| 20260904163552 | 83 | 190 | 0.0 | 4.0 | 0.00 | 0.00 | 0.00 | 65 | 1014.5 |
| 20260904163112 | 82 | 190 | 2.0 | 4.0 | 0.00 | 0.00 | 0.00 | 64 | 1013.1 |
| 20260904163055 | 82 | 190 | 2.0 | 4.0 | 0.00 | 0.00 | 0.00 | 65 | 1014.5 |
| 20260904162551 | 82 | 190 | 1.0 | 4.0 | 0.00 | 0.00 | 0.00 | 66 | 1014.6 |
| 20260904162048 | 81 | 190 | 1.0 | 4.0 | 0.00 | 0.00 | 0.00 | 68 | 1014.7 |
| 20260904161612 | 81 | 0 | 1.0 | 5.0 | 0.00 | 0.00 | 0.00 | 66 | 1013.3 |
| 20260904161601 | 80 | 190 | 1.0 | 5.0 | 0.00 | 0.00 | 0.00 | 67 | 1014.8 |